FID,VOYAGENAME,LATITUDE_DEGNORTH,LONGITUDE_DEGEAST,DATE_TIME_UTC,GPS_QC,ATM_PRESS_HPA,ATM_PRESS_QC,TEMP_AIR_DEGC,TEMP_AIR_QC,WTR_DEPTH_M,WTR_DEPTH_QC,SHIP_HEADING_GYRO_DEG,SHIP_HEADING_GYRO_QC,REL_HUMIDITY_PERCENT,REL_HUMIDITY_QC,SHIP_LOG_KNOT,SHIP_LOG_QC,RAD_PAR_MEPERM2PERS,RAD_PAR_QC,SALINITY_TSG_PSU,SALINITY_TSG_QC,TEMP_SEA_WTR_DEGC,TEMP_SEA_WTR_QC,WND_DIR_MAINMST_DEG,WND_DIR_MAINMST_QC,WND_GUST_MAX_KNOT,WND_GUST_MAX_QC,WND_SPD_MAINMST_KNOT,WND_SPD_MAINMST_QC,MARLIN_ID,GEO_LOCATION
FR200204_VOYAGE.2002-04-22 07:25:00,FR200204,-33.844,151.269,2002-04-22 07:25:00,32,1012.8,32,20.7,32,,,39.4,32,71.6,32,8.1,32,40.5,32,,,,,188.3,32,7.2,32,6.6,32,6001,"LINESTRING (151.269 -33.844, 151.271 -33.843)"
FR200204_VOYAGE.2002-04-22 07:26:00,FR200204,-33.843,151.271,2002-04-22 07:26:00,32,,,,,14,32,,,,,,,,,,,,,,,,,,,6001,"LINESTRING (151.271 -33.843, 151.273 -33.842)"
FR200204_VOYAGE.2002-04-22 07:27:00,FR200204,-33.842,151.273,2002-04-22 07:27:00,32,,,,,14,32,,,,,,,,,,,,,,,,,,,6001,"LINESTRING (151.273 -33.842, 151.274 -33.84)"
FR200204_VOYAGE.2002-04-22 07:28:00,FR200204,-33.84,151.274,2002-04-22 07:28:00,32,,,,,14,32,,,,,,,,,,,,,,,,,,,6001,"LINESTRING (151.274 -33.84, 151.274 -33.838)"
FR200204_VOYAGE.2002-04-22 07:29:00,FR200204,-33.838,151.274,2002-04-22 07:29:00,32,,,,,15,32,,,,,,,,,,,,,,,,,,,6001,"LINESTRING (151.274 -33.838, 151.275 -33.836)"
FR200204_VOYAGE.2002-04-22 07:30:00,FR200204,-33.836,151.275,2002-04-22 07:30:00,32,1012.8,32,20.8,32,16,32,24.7,32,71.6,32,7.3,32,44.7,32,,,,,188.5,32,8.4,32,7.1,32,6001,"LINESTRING (151.275 -33.836, 151.275 -33.834)"
FR200204_VOYAGE.2002-04-22 07:31:00,FR200204,-33.834,151.275,2002-04-22 07:31:00,32,,,,,15,32,,,,,,,,,,,,,,,,,,,6001,"LINESTRING (151.275 -33.834, 151.276 -33.832)"
FR200204_VOYAGE.2002-04-22 07:32:00,FR200204,-33.832,151.276,2002-04-22 07:32:00,32,,,,,16,32,,,,,,,,,,,,,,,,,,,6001,"LINESTRING (151.276 -33.832, 151.276 -33.83)"
FR200204_VOYAGE.2002-04-22 07:33:00,FR200204,-33.83,151.276,2002-04-22 07:33:00,32,,,,,15,32,,,,,,,,,,,,,,,,,,,6001,"LINESTRING (151.276 -33.83, 151.277 -33.828)"
FR200204_VOYAGE.2002-04-22 07:34:00,FR200204,-33.828,151.277,2002-04-22 07:34:00,32,,,,,18,32,,,,,,,,,,,,,,,,,,,6001,"LINESTRING (151.277 -33.828, 151.279 -33.827)"
FR200204_VOYAGE.2002-04-22 07:35:00,FR200204,-33.827,151.279,2002-04-22 07:35:00,32,1012.9,32,20.8,32,21,32,118.6,32,72.2,32,6.3,32,42.6,32,35.14,32,21,32,212.7,32,12.6,32,10.8,32,6001,"LINESTRING (151.279 -33.827, 151.281 -33.827)"
FR200204_VOYAGE.2002-04-22 07:36:00,FR200204,-33.827,151.281,2002-04-22 07:36:00,32,,,,,22,32,,,,,,,,,,,,,,,,,,,6001,"LINESTRING (151.281 -33.827, 151.283 -33.827)"
FR200204_VOYAGE.2002-04-22 07:37:00,FR200204,-33.827,151.283,2002-04-22 07:37:00,32,,,,,24,32,,,,,,,,,,,,,,,,,,,6001,"LINESTRING (151.283 -33.827, 151.285 -33.828)"
FR200204_VOYAGE.2002-04-22 07:38:00,FR200204,-33.828,151.285,2002-04-22 07:38:00,32,,,,,25,32,,,,,,,,,,,,,,,,,,,6001,"LINESTRING (151.285 -33.828, 151.286 -33.829)"
FR200204_VOYAGE.2002-04-22 07:39:00,FR200204,-33.829,151.286,2002-04-22 07:39:00,32,,,,,28,32,,,,,,,,,,,,,,,,,,,6001,"LINESTRING (151.286 -33.829, 151.288 -33.83)"
FR200204_VOYAGE.2002-04-22 07:40:00,FR200204,-33.83,151.288,2002-04-22 07:40:00,32,1012.8,32,21,32,27,32,133.6,32,73.8,32,6.8,32,44.6,32,35.28,32,21,32,206.4,32,22,32,18.5,32,6001,"LINESTRING (151.288 -33.83, 151.29 -33.831)"
FR200204_VOYAGE.2002-04-22 07:41:00,FR200204,-33.831,151.29,2002-04-22 07:41:00,32,,,,,30,32,,,,,,,,,,,,,,,,,,,6001,"LINESTRING (151.29 -33.831, 151.292 -33.832)"
FR200204_VOYAGE.2002-04-22 07:42:00,FR200204,-33.832,151.292,2002-04-22 07:42:00,32,,,,,31,32,,,,,,,,,,,,,,,,,,,6001,"LINESTRING (151.292 -33.832, 151.293 -33.833)"
FR200204_VOYAGE.2002-04-22 07:43:00,FR200204,-33.833,151.293,2002-04-22 07:43:00,32,,,,,32,32,,,,,,,,,,,,,,,,,,,6001,"LINESTRING (151.293 -33.833, 151.295 -33.834)"
FR200204_VOYAGE.2002-04-22 07:44:00,FR200204,-33.834,151.295,2002-04-22 07:44:00,32,,,,,33,32,,,,,,,,,,,,,,,,,,,6001,"LINESTRING (151.295 -33.834, 151.297 -33.835)"
FR200204_VOYAGE.2002-04-22 07:45:00,FR200204,-33.835,151.297,2002-04-22 07:45:00,32,1013,32,20.4,32,35,32,134,32,77.4,32,9.2,32,42.2,32,35.39,32,21.06,32,207.7,32,28.2,32,24.3,32,6001,"LINESTRING (151.297 -33.835, 151.3 -33.837)"
FR200204_VOYAGE.2002-04-22 07:46:00,FR200204,-33.837,151.3,2002-04-22 07:46:00,32,,,,,37,32,,,,,,,,,,,,,,,,,,,6001,"LINESTRING (151.3 -33.837, 151.302 -33.838)"
FR200204_VOYAGE.2002-04-22 07:47:00,FR200204,-33.838,151.302,2002-04-22 07:47:00,32,,,,,40,32,,,,,,,,,,,,,,,,,,,6001,"LINESTRING (151.302 -33.838, 151.304 -33.84)"
FR200204_VOYAGE.2002-04-22 07:48:00,FR200204,-33.84,151.304,2002-04-22 07:48:00,32,,,,,42,32,,,,,,,,,,,,,,,,,,,6001,"LINESTRING (151.304 -33.84, 151.307 -33.841)"
FR200204_VOYAGE.2002-04-22 07:49:00,FR200204,-33.841,151.307,2002-04-22 07:49:00,32,,,,,45,32,,,,,,,,,,,,,,,,,,,6001,"LINESTRING (151.307 -33.841, 151.309 -33.843)"
FR200204_VOYAGE.2002-04-22 07:50:00,FR200204,-33.843,151.309,2002-04-22 07:50:00,32,1012.8,32,20.2,32,46,32,134,32,79.3,32,9.3,32,43.9,32,35.42,32,21.25,32,212.2,32,23.1,32,20.1,32,6001,"LINESTRING (151.309 -33.843, 151.312 -33.844)"
FR200204_VOYAGE.2002-04-22 07:51:00,FR200204,-33.844,151.312,2002-04-22 07:51:00,32,,,,,49,32,,,,,,,,,,,,,,,,,,,6001,"LINESTRING (151.312 -33.844, 151.314 -33.845)"
FR200204_VOYAGE.2002-04-22 07:52:00,FR200204,-33.845,151.314,2002-04-22 07:52:00,32,,,,,51,32,,,,,,,,,,,,,,,,,,,6001,"LINESTRING (151.314 -33.845, 151.316 -33.847)"
FR200204_VOYAGE.2002-04-22 07:53:00,FR200204,-33.847,151.316,2002-04-22 07:53:00,32,,,,,54,32,,,,,,,,,,,,,,,,,,,6001,"LINESTRING (151.316 -33.847, 151.319 -33.848)"
FR200204_VOYAGE.2002-04-22 07:54:00,FR200204,-33.848,151.319,2002-04-22 07:54:00,32,,,,,56,32,,,,,,,,,,,,,,,,,,,6001,"LINESTRING (151.319 -33.848, 151.321 -33.85)"
FR200204_VOYAGE.2002-04-22 07:55:00,FR200204,-33.85,151.321,2002-04-22 07:55:00,32,1012.8,32,20.3,32,59,32,133.8,32,79,32,9.3,32,44.8,32,35.51,32,21.45,32,212.7,32,22.3,32,19.2,32,6001,"LINESTRING (151.321 -33.85, 151.323 -33.851)"
FR200204_VOYAGE.2002-04-22 07:56:00,FR200204,-33.851,151.323,2002-04-22 07:56:00,32,,,,,62,32,,,,,,,,,,,,,,,,,,,6001,"LINESTRING (151.323 -33.851, 151.326 -33.853)"
FR200204_VOYAGE.2002-04-22 07:57:00,FR200204,-33.853,151.326,2002-04-22 07:57:00,32,,,,,64,32,,,,,,,,,,,,,,,,,,,6001,"LINESTRING (151.326 -33.853, 151.328 -33.854)"
FR200204_VOYAGE.2002-04-22 07:58:00,FR200204,-33.854,151.328,2002-04-22 07:58:00,32,,,,,61,32,,,,,,,,,,,,,,,,,,,6001,"LINESTRING (151.328 -33.854, 151.33 -33.855)"
FR200204_VOYAGE.2002-04-22 07:59:00,FR200204,-33.855,151.33,2002-04-22 07:59:00,32,,,,,66,32,,,,,,,,,,,,,,,,,,,6001,"LINESTRING (151.33 -33.855, 151.333 -33.857)"
FR200204_VOYAGE.2002-04-22 08:00:00,FR200204,-33.857,151.333,2002-04-22 08:00:00,32,1012.8,32,20.5,32,66,32,133.8,32,78.6,32,9.3,32,44.7,32,35.52,32,21.47,32,214.7,32,20.7,32,17.8,32,6001,"LINESTRING (151.333 -33.857, 151.335 -33.858)"
FR200204_VOYAGE.2002-04-22 08:01:00,FR200204,-33.858,151.335,2002-04-22 08:01:00,32,,,,,63,32,,,,,,,,,,,,,,,,,,,6001,"LINESTRING (151.335 -33.858, 151.338 -33.859)"
FR200204_VOYAGE.2002-04-22 08:02:00,FR200204,-33.859,151.338,2002-04-22 08:02:00,32,,,,,63,32,,,,,,,,,,,,,,,,,,,6001,"LINESTRING (151.338 -33.859, 151.34 -33.861)"
FR200204_VOYAGE.2002-04-22 08:03:00,FR200204,-33.861,151.34,2002-04-22 08:03:00,32,,,,,64,32,,,,,,,,,,,,,,,,,,,6001,"LINESTRING (151.34 -33.861, 151.343 -33.862)"
FR200204_VOYAGE.2002-04-22 08:04:00,FR200204,-33.862,151.343,2002-04-22 08:04:00,32,,,,,64,32,,,,,,,,,,,,,,,,,,,6001,"LINESTRING (151.343 -33.862, 151.345 -33.864)"
FR200204_VOYAGE.2002-04-22 08:05:00,FR200204,-33.864,151.345,2002-04-22 08:05:00,32,1012.9,32,20.7,32,69,32,132.8,32,78.8,32,9.2,32,50.8,32,35.53,32,21.5,32,214,32,20.1,32,17.4,32,6001,"LINESTRING (151.345 -33.864, 151.347 -33.865)"
FR200204_VOYAGE.2002-04-22 08:06:00,FR200204,-33.865,151.347,2002-04-22 08:06:00,32,,,,,73,32,,,,,,,,,,,,,,,,,,,6001,"LINESTRING (151.347 -33.865, 151.35 -33.866)"
FR200204_VOYAGE.2002-04-22 08:07:00,FR200204,-33.866,151.35,2002-04-22 08:07:00,32,,,,,75,32,,,,,,,,,,,,,,,,,,,6001,"LINESTRING (151.35 -33.866, 151.352 -33.868)"
FR200204_VOYAGE.2002-04-22 08:08:00,FR200204,-33.868,151.352,2002-04-22 08:08:00,32,,,,,73,32,,,,,,,,,,,,,,,,,,,6001,"LINESTRING (151.352 -33.868, 151.355 -33.869)"
FR200204_VOYAGE.2002-04-22 08:09:00,FR200204,-33.869,151.355,2002-04-22 08:09:00,32,,,,,75,32,,,,,,,,,,,,,,,,,,,6001,"LINESTRING (151.355 -33.869, 151.357 -33.871)"
FR200204_VOYAGE.2002-04-22 08:10:00,FR200204,-33.871,151.357,2002-04-22 08:10:00,32,1012.9,32,20.9,32,75,32,181.9,32,78,32,8.5,32,51.1,32,35.54,32,21.51,32,233.1,32,23.1,32,19,32,6001,"LINESTRING (151.357 -33.871, 151.359 -33.872)"
FR200204_VOYAGE.2002-04-22 08:11:00,FR200204,-33.872,151.359,2002-04-22 08:11:00,32,,,,,75,32,,,,,,,,,,,,,,,,,,,6001,"LINESTRING (151.359 -33.872, 151.359 -33.874)"
FR200204_VOYAGE.2002-04-22 08:12:00,FR200204,-33.874,151.359,2002-04-22 08:12:00,32,,,,,75,32,,,,,,,,,,,,,,,,,,,6001,"LINESTRING (151.359 -33.874, 151.358 -33.877)"
FR200204_VOYAGE.2002-04-22 08:13:00,FR200204,-33.877,151.358,2002-04-22 08:13:00,32,,,,,74,32,,,,,,,,,,,,,,,,,,,6001,"LINESTRING (151.358 -33.877, 151.358 -33.879)"
FR200204_VOYAGE.2002-04-22 08:14:00,FR200204,-33.879,151.358,2002-04-22 08:14:00,32,,,,,76,32,,,,,,,,,,,,,,,,,,,6001,"LINESTRING (151.358 -33.879, 151.358 -33.881)"
FR200204_VOYAGE.2002-04-22 08:15:00,FR200204,-33.881,151.358,2002-04-22 08:15:00,32,1012.9,32,21.3,32,74,32,186.5,32,70.1,32,8.8,32,77.8,32,35.54,32,21.48,32,222.5,32,26.7,32,22.7,32,6001,"LINESTRING (151.358 -33.881, 151.358 -33.884)"
FR200204_VOYAGE.2002-04-22 08:16:00,FR200204,-33.884,151.358,2002-04-22 08:16:00,32,,,,,74,32,,,,,,,,,,,,,,,,,,,6001,"LINESTRING (151.358 -33.884, 151.358 -33.886)"
FR200204_VOYAGE.2002-04-22 08:17:00,FR200204,-33.886,151.358,2002-04-22 08:17:00,32,,,,,77,32,,,,,,,,,,,,,,,,,,,6001,"LINESTRING (151.358 -33.886, 151.358 -33.888)"
FR200204_VOYAGE.2002-04-22 08:18:00,FR200204,-33.888,151.358,2002-04-22 08:18:00,32,,,,,74,32,,,,,,,,,,,,,,,,,,,6001,"LINESTRING (151.358 -33.888, 151.358 -33.89)"
FR200204_VOYAGE.2002-04-22 08:19:00,FR200204,-33.89,151.358,2002-04-22 08:19:00,32,,,,,80,32,,,,,,,,,,,,,,,,,,,6001,"LINESTRING (151.358 -33.89, 151.358 -33.893)"
FR200204_VOYAGE.2002-04-22 08:20:00,FR200204,-33.893,151.358,2002-04-22 08:20:00,32,1012.9,32,21.3,32,75,32,196.3,32,69.4,32,10,32,99.6,32,35.53,32,21.45,32,226.7,32,26.6,32,22.3,32,6001,"LINESTRING (151.358 -33.893, 151.358 -33.896)"
FR200204_VOYAGE.2002-04-22 08:21:00,FR200204,-33.896,151.358,2002-04-22 08:21:00,32,,,,,78,32,,,,,,,,,,,,,,,,,,,6001,"LINESTRING (151.358 -33.896, 151.357 -33.898)"
FR200204_VOYAGE.2002-04-22 08:22:00,FR200204,-33.898,151.357,2002-04-22 08:22:00,32,,,,,79,32,,,,,,,,,,,,,,,,,,,6001,"LINESTRING (151.357 -33.898, 151.357 -33.901)"
FR200204_VOYAGE.2002-04-22 08:23:00,FR200204,-33.901,151.357,2002-04-22 08:23:00,32,,,,,79,32,,,,,,,,,,,,,,,,,,,6001,"LINESTRING (151.357 -33.901, 151.356 -33.903)"
FR200204_VOYAGE.2002-04-22 08:24:00,FR200204,-33.903,151.356,2002-04-22 08:24:00,32,,,,,77,32,,,,,,,,,,,,,,,,,,,6001,"LINESTRING (151.356 -33.903, 151.355 -33.906)"
FR200204_VOYAGE.2002-04-22 08:25:00,FR200204,-33.906,151.355,2002-04-22 08:25:00,32,1012.9,32,21.3,32,76,32,199.1,32,67.6,32,10.4,32,200.5,32,35.52,32,21.41,32,223,32,27.7,32,23.9,32,6001,"LINESTRING (151.355 -33.906, 151.355 -33.908)"
FR200204_VOYAGE.2002-04-22 08:26:00,FR200204,-33.908,151.355,2002-04-22 08:26:00,32,,,,,77,32,,,,,,,,,,,,,,,,,,,6001,"LINESTRING (151.355 -33.908, 151.354 -33.911)"
FR200204_VOYAGE.2002-04-22 08:27:00,FR200204,-33.911,151.354,2002-04-22 08:27:00,32,,,,,79,32,,,,,,,,,,,,,,,,,,,6001,"LINESTRING (151.354 -33.911, 151.353 -33.913)"
FR200204_VOYAGE.2002-04-22 08:28:00,FR200204,-33.913,151.353,2002-04-22 08:28:00,32,,,,,79,32,,,,,,,,,,,,,,,,,,,6001,"LINESTRING (151.353 -33.913, 151.352 -33.916)"
FR200204_VOYAGE.2002-04-22 08:29:00,FR200204,-33.916,151.352,2002-04-22 08:29:00,32,,,,,81,32,,,,,,,,,,,,,,,,,,,6001,"LINESTRING (151.352 -33.916, 151.351 -33.919)"
FR200204_VOYAGE.2002-04-22 08:30:00,FR200204,-33.919,151.351,2002-04-22 08:30:00,32,1013,32,21.3,32,82,32,199.2,32,67.9,32,10.4,32,201.9,32,35.52,32,21.37,32,221.4,32,28.1,32,23.6,32,6001,"LINESTRING (151.351 -33.919, 151.351 -33.921)"
FR200204_VOYAGE.2002-04-22 08:31:00,FR200204,-33.921,151.351,2002-04-22 08:31:00,32,,,,,82,32,,,,,,,,,,,,,,,,,,,6001,"LINESTRING (151.351 -33.921, 151.35 -33.924)"
FR200204_VOYAGE.2002-04-22 08:32:00,FR200204,-33.924,151.35,2002-04-22 08:32:00,32,,,,,82,32,,,,,,,,,,,,,,,,,,,6001,"LINESTRING (151.35 -33.924, 151.349 -33.926)"
FR200204_VOYAGE.2002-04-22 08:33:00,FR200204,-33.926,151.349,2002-04-22 08:33:00,32,,,,,80,32,,,,,,,,,,,,,,,,,,,6001,"LINESTRING (151.349 -33.926, 151.348 -33.929)"
FR200204_VOYAGE.2002-04-22 08:34:00,FR200204,-33.929,151.348,2002-04-22 08:34:00,32,,,,,82,32,,,,,,,,,,,,,,,,,,,6001,"LINESTRING (151.348 -33.929, 151.347 -33.932)"
FR200204_VOYAGE.2002-04-22 08:35:00,FR200204,-33.932,151.347,2002-04-22 08:35:00,32,1013.1,32,21.3,32,83,32,199,32,68.4,32,10.3,32,214.6,32,35.52,32,21.25,32,220.4,32,27,32,22.7,32,6001,"LINESTRING (151.347 -33.932, 151.347 -33.934)"
FR200204_VOYAGE.2002-04-22 08:36:00,FR200204,-33.934,151.347,2002-04-22 08:36:00,32,,,,,83,32,,,,,,,,,,,,,,,,,,,6001,"LINESTRING (151.347 -33.934, 151.346 -33.937)"
FR200204_VOYAGE.2002-04-22 08:37:00,FR200204,-33.937,151.346,2002-04-22 08:37:00,32,,,,,81,32,,,,,,,,,,,,,,,,,,,6001,"LINESTRING (151.346 -33.937, 151.345 -33.94)"
FR200204_VOYAGE.2002-04-22 08:38:00,FR200204,-33.94,151.345,2002-04-22 08:38:00,32,,,,,81,32,,,,,,,,,,,,,,,,,,,6001,"LINESTRING (151.345 -33.94, 151.345 -33.942)"
FR200204_VOYAGE.2002-04-22 08:39:00,FR200204,-33.942,151.345,2002-04-22 08:39:00,32,,,,,86,32,,,,,,,,,,,,,,,,,,,6001,"LINESTRING (151.345 -33.942, 151.344 -33.945)"
FR200204_VOYAGE.2002-04-22 08:40:00,FR200204,-33.945,151.344,2002-04-22 08:40:00,32,1013.1,32,21.2,32,84,32,199,32,68.9,32,10.6,32,191.4,32,35.48,32,21.2,32,221,32,24.9,32,21.4,32,6001,"LINESTRING (151.344 -33.945, 151.343 -33.947)"
FR200204_VOYAGE.2002-04-22 08:41:00,FR200204,-33.947,151.343,2002-04-22 08:41:00,32,,,,,83,32,,,,,,,,,,,,,,,,,,,6001,"LINESTRING (151.343 -33.947, 151.342 -33.95)"
FR200204_VOYAGE.2002-04-22 08:42:00,FR200204,-33.95,151.342,2002-04-22 08:42:00,32,,,,,83,32,,,,,,,,,,,,,,,,,,,6001,"LINESTRING (151.342 -33.95, 151.341 -33.952)"
FR200204_VOYAGE.2002-04-22 08:43:00,FR200204,-33.952,151.341,2002-04-22 08:43:00,32,,,,,85,32,,,,,,,,,,,,,,,,,,,6001,"LINESTRING (151.341 -33.952, 151.34 -33.955)"
FR200204_VOYAGE.2002-04-22 08:44:00,FR200204,-33.955,151.34,2002-04-22 08:44:00,32,,,,,81,32,,,,,,,,,,,,,,,,,,,6001,"LINESTRING (151.34 -33.955, 151.34 -33.957)"
FR200204_VOYAGE.2002-04-22 08:45:00,FR200204,-33.957,151.34,2002-04-22 08:45:00,32,1013.2,32,21.2,32,83,32,197.8,32,69.1,32,10.4,32,174.6,32,35.49,32,21.19,32,219.9,32,24.8,32,21.1,32,6001,"LINESTRING (151.34 -33.957, 151.339 -33.96)"
FR200204_VOYAGE.2002-04-22 08:46:00,FR200204,-33.96,151.339,2002-04-22 08:46:00,32,,,,,83,32,,,,,,,,,,,,,,,,,,,6001,"LINESTRING (151.339 -33.96, 151.338 -33.962)"
FR200204_VOYAGE.2002-04-22 08:47:00,FR200204,-33.962,151.338,2002-04-22 08:47:00,32,,,,,83,32,,,,,,,,,,,,,,,,,,,6001,"LINESTRING (151.338 -33.962, 151.337 -33.965)"
FR200204_VOYAGE.2002-04-22 08:48:00,FR200204,-33.965,151.337,2002-04-22 08:48:00,32,,,,,81,32,,,,,,,,,,,,,,,,,,,6001,"LINESTRING (151.337 -33.965, 151.337 -33.968)"
FR200204_VOYAGE.2002-04-22 08:49:00,FR200204,-33.968,151.337,2002-04-22 08:49:00,32,,,,,83,32,,,,,,,,,,,,,,,,,,,6001,"LINESTRING (151.337 -33.968, 151.336 -33.97)"
FR200204_VOYAGE.2002-04-22 08:50:00,FR200204,-33.97,151.336,2002-04-22 08:50:00,32,1013.1,32,21.2,32,83,32,194.5,32,71.1,32,10.5,32,154.8,32,35.49,32,21.2,32,217,32,24.5,32,20.5,32,6001,"LINESTRING (151.336 -33.97, 151.335 -33.973)"
FR200204_VOYAGE.2002-04-22 08:51:00,FR200204,-33.973,151.335,2002-04-22 08:51:00,32,,,,,89,32,,,,,,,,,,,,,,,,,,,6001,"LINESTRING (151.335 -33.973, 151.335 -33.975)"
FR200204_VOYAGE.2002-04-22 08:52:00,FR200204,-33.975,151.335,2002-04-22 08:52:00,32,,,,,89,32,,,,,,,,,,,,,,,,,,,6001,"LINESTRING (151.335 -33.975, 151.334 -33.978)"
FR200204_VOYAGE.2002-04-22 08:53:00,FR200204,-33.978,151.334,2002-04-22 08:53:00,32,,,,,89,32,,,,,,,,,,,,,,,,,,,6001,"LINESTRING (151.334 -33.978, 151.334 -33.98)"
FR200204_VOYAGE.2002-04-22 08:54:00,FR200204,-33.98,151.334,2002-04-22 08:54:00,32,,,,,88,32,,,,,,,,,,,,,,,,,,,6001,"LINESTRING (151.334 -33.98, 151.333 -33.983)"
FR200204_VOYAGE.2002-04-22 08:55:00,FR200204,-33.983,151.333,2002-04-22 08:55:00,32,1013.1,32,21.2,32,88,32,194.5,32,70.6,32,10.2,32,170.1,32,35.49,32,21.18,32,216.4,32,24.9,32,21.3,32,6001,"LINESTRING (151.333 -33.983, 151.333 -33.985)"
FR200204_VOYAGE.2002-04-22 08:56:00,FR200204,-33.985,151.333,2002-04-22 08:56:00,32,,,,,89,32,,,,,,,,,,,,,,,,,,,6001,"LINESTRING (151.333 -33.985, 151.333 -33.988)"
FR200204_VOYAGE.2002-04-22 08:57:00,FR200204,-33.988,151.333,2002-04-22 08:57:00,32,,,,,91,32,,,,,,,,,,,,,,,,,,,6001,"LINESTRING (151.333 -33.988, 151.332 -33.99)"
FR200204_VOYAGE.2002-04-22 08:58:00,FR200204,-33.99,151.332,2002-04-22 08:58:00,32,,,,,92,32,,,,,,,,,,,,,,,,,,,6001,"LINESTRING (151.332 -33.99, 151.332 -33.993)"
FR200204_VOYAGE.2002-04-22 08:59:00,FR200204,-33.993,151.332,2002-04-22 08:59:00,32,,,,,92,32,,,,,,,,,,,,,,,,,,,6001,"LINESTRING (151.332 -33.993, 151.331 -33.995)"
FR200204_VOYAGE.2002-04-22 09:00:00,FR200204,-33.995,151.331,2002-04-22 09:00:00,32,1013.1,32,21.2,32,94,32,194.8,32,71.6,32,10.2,32,215.4,32,35.48,32,21.13,32,216.7,32,25.7,32,20.8,32,6001,"LINESTRING (151.331 -33.995, 151.331 -33.998)"
FR200204_VOYAGE.2002-04-22 09:01:00,FR200204,-33.998,151.331,2002-04-22 09:01:00,32,,,,,97,32,,,,,,,,,,,,,,,,,,,6001,"LINESTRING (151.331 -33.998, 151.331 -34)"
FR200204_VOYAGE.2002-04-22 09:02:00,FR200204,-34,151.331,2002-04-22 09:02:00,32,,,,,99,32,,,,,,,,,,,,,,,,,,,6001,"LINESTRING (151.331 -34, 151.33 -34.003)"
FR200204_VOYAGE.2002-04-22 09:03:00,FR200204,-34.003,151.33,2002-04-22 09:03:00,32,,,,,96,32,,,,,,,,,,,,,,,,,,,6001,"LINESTRING (151.33 -34.003, 151.33 -34.005)"
FR200204_VOYAGE.2002-04-22 09:04:00,FR200204,-34.005,151.33,2002-04-22 09:04:00,32,,,,,98,32,,,,,,,,,,,,,,,,,,,6001,"LINESTRING (151.33 -34.005, 151.329 -34.007)"
FR200204_VOYAGE.2002-04-22 09:05:00,FR200204,-34.007,151.329,2002-04-22 09:05:00,32,1013.1,32,21.2,32,101,32,195.3,32,70.6,32,10,32,225.3,32,35.49,32,21.05,32,216.4,32,27,32,22.9,32,6001,"LINESTRING (151.329 -34.007, 151.329 -34.01)"
FR200204_VOYAGE.2002-04-22 09:06:00,FR200204,-34.01,151.329,2002-04-22 09:06:00,32,,,,,102,32,,,,,,,,,,,,,,,,,,,6001,"LINESTRING (151.329 -34.01, 151.328 -34.013)"
FR200204_VOYAGE.2002-04-22 09:07:00,FR200204,-34.013,151.328,2002-04-22 09:07:00,32,,,,,107,32,,,,,,,,,,,,,,,,,,,6001,"LINESTRING (151.328 -34.013, 151.327 -34.015)"
FR200204_VOYAGE.2002-04-22 09:08:00,FR200204,-34.015,151.327,2002-04-22 09:08:00,32,,,,,110,32,,,,,,,,,,,,,,,,,,,6001,"LINESTRING (151.327 -34.015, 151.327 -34.018)"
FR200204_VOYAGE.2002-04-22 09:09:00,FR200204,-34.018,151.327,2002-04-22 09:09:00,32,,,,,110,32,,,,,,,,,,,,,,,,,,,6001,"LINESTRING (151.327 -34.018, 151.326 -34.02)"
FR200204_VOYAGE.2002-04-22 09:10:00,FR200204,-34.02,151.326,2002-04-22 09:10:00,32,1013.1,32,21.2,32,114,32,196.3,32,69.7,32,10,32,241.3,32,35.48,32,21.12,32,217.3,32,27.6,32,23.2,32,6001,"LINESTRING (151.326 -34.02, 151.326 -34.023)"
FR200204_VOYAGE.2002-04-22 09:11:00,FR200204,-34.023,151.326,2002-04-22 09:11:00,32,,,,,116,32,,,,,,,,,,,,,,,,,,,6001,"LINESTRING (151.326 -34.023, 151.325 -34.026)"
FR200204_VOYAGE.2002-04-22 09:12:00,FR200204,-34.026,151.325,2002-04-22 09:12:00,32,,,,,119,32,,,,,,,,,,,,,,,,,,,6001,"LINESTRING (151.325 -34.026, 151.324 -34.028)"
FR200204_VOYAGE.2002-04-22 09:13:00,FR200204,-34.028,151.324,2002-04-22 09:13:00,32,,,,,120,32,,,,,,,,,,,,,,,,,,,6001,"LINESTRING (151.324 -34.028, 151.324 -34.03)"
FR200204_VOYAGE.2002-04-22 09:14:00,FR200204,-34.03,151.324,2002-04-22 09:14:00,32,,,,,122,32,,,,,,,,,,,,,,,,,,,6001,"LINESTRING (151.324 -34.03, 151.323 -34.033)"
FR200204_VOYAGE.2002-04-22 09:15:00,FR200204,-34.033,151.323,2002-04-22 09:15:00,32,1013.2,32,21.2,32,124,32,201.8,32,70.7,32,10.2,32,220.5,32,35.48,32,21.13,32,223.2,32,26.4,32,21.9,32,6001,"LINESTRING (151.323 -34.033, 151.322 -34.036)"
FR200204_VOYAGE.2002-04-22 09:16:00,FR200204,-34.036,151.322,2002-04-22 09:16:00,32,,,,,125,32,,,,,,,,,,,,,,,,,,,6001,"LINESTRING (151.322 -34.036, 151.321 -34.038)"
FR200204_VOYAGE.2002-04-22 09:17:00,FR200204,-34.038,151.321,2002-04-22 09:17:00,32,,,,,125,32,,,,,,,,,,,,,,,,,,,6001,"LINESTRING (151.321 -34.038, 151.321 -34.041)"
FR200204_VOYAGE.2002-04-22 09:18:00,FR200204,-34.041,151.321,2002-04-22 09:18:00,32,,,,,126,32,,,,,,,,,,,,,,,,,,,6001,"LINESTRING (151.321 -34.041, 151.32 -34.043)"
FR200204_VOYAGE.2002-04-22 09:19:00,FR200204,-34.043,151.32,2002-04-22 09:19:00,32,,,,,127,32,,,,,,,,,,,,,,,,,,,6001,"LINESTRING (151.32 -34.043, 151.319 -34.046)"
FR200204_VOYAGE.2002-04-22 09:20:00,FR200204,-34.046,151.319,2002-04-22 09:20:00,32,1013.2,32,21.2,32,127,32,203.1,32,69.7,32,10.3,32,221.8,32,35.49,32,21.07,32,224.5,32,25.9,32,22.2,32,6001,"LINESTRING (151.319 -34.046, 151.317 -34.048)"
FR200204_VOYAGE.2002-04-22 09:21:00,FR200204,-34.048,151.317,2002-04-22 09:21:00,32,,,,,127,32,,,,,,,,,,,,,,,,,,,6001,"LINESTRING (151.317 -34.048, 151.316 -34.051)"
FR200204_VOYAGE.2002-04-22 09:22:00,FR200204,-34.051,151.316,2002-04-22 09:22:00,32,,,,,128,32,,,,,,,,,,,,,,,,,,,6001,"LINESTRING (151.316 -34.051, 151.315 -34.053)"
FR200204_VOYAGE.2002-04-22 09:23:00,FR200204,-34.053,151.315,2002-04-22 09:23:00,32,,,,,128,32,,,,,,,,,,,,,,,,,,,6001,"LINESTRING (151.315 -34.053, 151.315 -34.056)"
FR200204_VOYAGE.2002-04-22 09:24:00,FR200204,-34.056,151.315,2002-04-22 09:24:00,32,,,,,129,32,,,,,,,,,,,,,,,,,,,6001,"LINESTRING (151.315 -34.056, 151.313 -34.059)"
FR200204_VOYAGE.2002-04-22 09:25:00,FR200204,-34.059,151.313,2002-04-22 09:25:00,32,1013.3,32,21.2,32,128,32,202.9,32,69,32,10.6,32,195.4,32,35.52,32,20.78,32,224.5,32,26.6,32,22.3,32,6001,"LINESTRING (151.313 -34.059, 151.312 -34.061)"
FR200204_VOYAGE.2002-04-22 09:26:00,FR200204,-34.061,151.312,2002-04-22 09:26:00,32,,,,,130,32,,,,,,,,,,,,,,,,,,,6001,"LINESTRING (151.312 -34.061, 151.311 -34.064)"
FR200204_VOYAGE.2002-04-22 09:27:00,FR200204,-34.064,151.311,2002-04-22 09:27:00,32,,,,,129,32,,,,,,,,,,,,,,,,,,,6001,"LINESTRING (151.311 -34.064, 151.31 -34.066)"
FR200204_VOYAGE.2002-04-22 09:28:00,FR200204,-34.066,151.31,2002-04-22 09:28:00,32,,,,,129,32,,,,,,,,,,,,,,,,,,,6001,"LINESTRING (151.31 -34.066, 151.309 -34.069)"
FR200204_VOYAGE.2002-04-22 09:29:00,FR200204,-34.069,151.309,2002-04-22 09:29:00,32,,,,,129,32,,,,,,,,,,,,,,,,,,,6001,"LINESTRING (151.309 -34.069, 151.308 -34.071)"
FR200204_VOYAGE.2002-04-22 09:30:00,FR200204,-34.071,151.308,2002-04-22 09:30:00,32,1013.4,32,21.1,32,130,32,203,32,70.4,32,10.8,32,201.1,32,35.52,32,20.41,32,225.5,32,23.6,32,20.1,32,6001,"LINESTRING (151.308 -34.071, 151.307 -34.074)"
FR200204_VOYAGE.2002-04-22 09:31:00,FR200204,-34.074,151.307,2002-04-22 09:31:00,32,,,,,129,32,,,,,,,,,,,,,,,,,,,6001,"LINESTRING (151.307 -34.074, 151.306 -34.076)"
FR200204_VOYAGE.2002-04-22 09:32:00,FR200204,-34.076,151.306,2002-04-22 09:32:00,32,,,,,130,32,,,,,,,,,,,,,,,,,,,6001,"LINESTRING (151.306 -34.076, 151.305 -34.078)"
FR200204_VOYAGE.2002-04-22 09:33:00,FR200204,-34.078,151.305,2002-04-22 09:33:00,32,,,,,131,32,,,,,,,,,,,,,,,,,,,6001,"LINESTRING (151.305 -34.078, 151.304 -34.081)"
FR200204_VOYAGE.2002-04-22 09:34:00,FR200204,-34.081,151.304,2002-04-22 09:34:00,32,,,,,130,32,,,,,,,,,,,,,,,,,,,6001,"LINESTRING (151.304 -34.081, 151.304 -34.083)"